�������l�o���
Date,Time,MP-1(��Sv/h),MP-2(��Sv/h),MP-3(��Sv/h),MP-4(��Sv/h),MP-5(��Sv/h),MP-6(��Sv/h),MP-7(��Sv/h),MP-8(��Sv/h),����,����(m/s),���J
2021/09/09,00:00,0.573,0.852,0.543,1.040,0.725,0.356,0.615,0.577,��,6.4,��
2021/09/09,00:10,0.574,0.851,0.542,1.040,0.725,0.354,0.613,0.576,��,6.0,��
2021/09/09,00:20,0.575,0.852,0.542,1.036,0.726,0.353,0.613,0.578,��,6.9,��
2021/09/09,00:30,0.575,0.854,0.544,1.040,0.727,0.354,0.614,0.576,��,6.6,��
2021/09/09,00:40,0.574,0.853,0.543,1.040,0.725,0.354,0.614,0.577,��,7.9,��
2021/09/09,00:50,0.574,0.854,0.544,1.039,0.724,0.356,0.616,0.577,��쐼,5.7,��
2021/09/09,01:00,0.574,0.852,0.544,1.038,0.727,0.354,0.614,0.577,��,5.7,��
2021/09/09,01:10,0.573,0.851,0.544,1.042,0.727,0.356,0.614,0.578,��,5.6,��
2021/09/09,01:20,0.575,0.855,0.545,1.037,0.726,0.354,0.615,0.576,��쐼,5.9,��
2021/09/09,01:30,0.575,0.852,0.544,1.040,0.725,0.355,0.613,0.577,��,5.5,��
2021/09/09,01:40,0.576,0.853,0.545,1.041,0.725,0.355,0.614,0.576,��,6.3,��
2021/09/09,01:50,0.575,0.851,0.542,1.041,0.727,0.355,0.612,0.577,��쐼,5.6,��
2021/09/09,02:00,0.575,0.852,0.543,1.040,0.726,0.354,0.614,0.576,��쐼,4.4,��
2021/09/09,02:10,0.574,0.852,0.544,1.038,0.725,0.356,0.614,0.577,��,5.1,��
2021/09/09,02:20,0.576,0.853,0.544,1.039,0.726,0.356,0.614,0.578,��쐼,5.0,��
2021/09/09,02:30,0.576,0.854,0.544,1.040,0.729,0.354,0.613,0.578,��,4.2,��
2021/09/09,02:40,0.576,0.854,0.545,1.042,0.727,0.356,0.612,0.577,��,4.6,��
2021/09/09,02:50,0.575,0.853,0.543,1.040,0.725,0.356,0.614,0.575,��,5.0,��
2021/09/09,03:00,0.577,0.855,0.544,1.041,0.726,0.355,0.613,0.577,��쐼,5.5,��
2021/09/09,03:10,0.576,0.852,0.544,1.039,0.725,0.354,0.613,0.577,��쐼,4.2,��
2021/09/09,03:20,0.578,0.854,0.544,1.042,0.727,0.355,0.613,0.578,��쐼,4.2,�L
2021/09/09,03:30,0.577,0.856,0.543,1.042,0.728,0.356,0.613,0.576,�쐼,3.6,�L
2021/09/09,03:40,0.578,0.854,0.544,1.042,0.728,0.354,0.613,0.578,��쐼,3.7,�L
2021/09/09,03:50,0.577,0.855,0.545,1.042,0.730,0.356,0.613,0.579,��쐼,3.5,�L
2021/09/09,04:00,0.579,0.854,0.545,1.042,0.731,0.355,0.613,0.576,��쐼,3.1,�L
2021/09/09,04:10,0.578,0.857,0.545,1.041,0.729,0.356,0.613,0.578,��,2.6,�L
2021/09/09,04:20,0.579,0.856,0.548,1.043,0.732,0.357,0.614,0.577,��,3.0,�L
2021/09/09,04:30,0.579,0.857,0.545,1.042,0.729,0.358,0.613,0.576,��,2.2,�L
2021/09/09,04:40,0.579,0.859,0.546,1.042,0.728,0.356,0.613,0.579,��쐼,3.1,��
2021/09/09,04:50,0.579,0.856,0.545,1.043,0.729,0.357,0.614,0.577,��쐼,2.2,�L
2021/09/09,05:00,0.580,0.856,0.544,1.041,0.726,0.356,0.614,0.577,-,CALM,�L
2021/09/09,05:10,0.579,0.857,0.544,1.043,0.731,0.358,0.613,0.577,��,0.6,�L
2021/09/09,05:20,0.578,0.855,0.546,1.043,0.729,0.357,0.612,0.578,���쐼,0.9,�L
2021/09/09,05:30,0.576,0.856,0.545,1.045,0.729,0.356,0.612,0.577,-,CALM,�L
2021/09/09,05:40,0.580,0.857,0.547,1.041,0.730,0.358,0.613,0.577,��쓌,1.2,��
2021/09/09,05:50,0.579,0.855,0.545,1.044,0.729,0.356,0.613,0.578,��쐼,1.2,�L
2021/09/09,06:00,0.579,0.855,0.545,1.042,0.730,0.358,0.613,0.577,��,2.0,��
2021/09/09,06:10,0.577,0.856,0.544,1.042,0.729,0.356,0.612,0.579,��,2.0,��
2021/09/09,06:20,0.578,0.855,0.544,1.041,0.730,0.357,0.612,0.578,��,3.7,��
2021/09/09,06:30,0.577,0.857,0.545,1.044,0.730,0.358,0.615,0.579,��,3.3,��
2021/09/09,06:40,0.578,0.857,0.545,1.043,0.730,0.355,0.613,0.577,��쐼,3.6,��
2021/09/09,06:50,0.579,0.858,0.545,1.042,0.728,0.357,0.614,0.577,���쐼,2.0,��
2021/09/09,07:00,0.579,0.856,0.545,1.042,0.731,0.356,0.613,0.577,���k��,2.3,�L
2021/09/09,07:10,0.579,0.858,0.546,1.043,0.729,0.357,0.614,0.578,��,2.0,�L
2021/09/09,07:20,0.581,0.856,0.545,1.044,0.729,0.356,0.613,0.578,�k�k��,3.7,�L
2021/09/09,07:30,0.579,0.856,0.544,1.043,0.728,0.357,0.613,0.577,�k��,4.2,�L
2021/09/09,07:40,0.578,0.859,0.543,1.043,0.730,0.355,0.615,0.577,-,CALM,��
2021/09/09,07:50,0.580,0.856,0.545,1.043,0.730,0.358,0.615,0.577,-,CALM,��
2021/09/09,08:00,0.579,0.856,0.546,1.041,0.732,0.357,0.613,0.578,�k,1.1,�L
2021/09/09,08:10,0.578,0.856,0.545,1.043,0.729,0.359,0.614,0.579,�k�k��,0.6,�L
2021/09/09,08:20,0.580,0.856,0.545,1.044,0.730,0.358,0.615,0.578,���쓌,0.9,�L
2021/09/09,08:30,0.580,0.857,0.545,1.042,0.728,0.357,0.614,0.579,�k�k��,1.9,�L
2021/09/09,08:40,0.579,0.855,0.546,1.044,0.729,0.356,0.615,0.578,�k,1.7,�L
2021/09/09,08:50,0.579,0.858,0.545,1.045,0.729,0.356,0.615,0.578,-,CALM,�L
2021/09/09,09:00,0.580,0.857,0.545,1.043,0.730,0.357,0.614,0.579,��,1.4,�L
2021/09/09,09:10,0.579,0.857,0.546,1.046,0.730,0.357,0.615,0.577,��쓌,1.5,�L
2021/09/09,09:20,0.580,0.858,0.545,1.043,0.731,0.357,0.614,0.579,��쓌,3.0,�L
2021/09/09,09:30,0.580,0.857,0.547,1.045,0.734,0.357,0.614,0.579,��쓌,3.6,�L
2021/09/09,09:40,0.580,0.857,0.545,1.044,0.730,0.356,0.614,0.579,��쓌,2.5,�L
2021/09/09,09:50,0.579,0.859,0.546,1.043,0.729,0.356,0.614,0.576,��쓌,1.7,�L
2021/09/09,10:00,0.580,0.854,0.546,1.045,0.730,0.356,0.614,0.577,��,1.5,�L
2021/09/09,10:10,0.580,0.860,0.544,1.043,0.731,0.356,0.613,0.575,��쐼,1.2,�L
2021/09/09,10:20,0.579,0.858,0.545,1.043,0.729,0.356,0.615,0.578,��쐼,0.9,��
2021/09/09,10:30,0.577,0.857,0.545,1.045,0.728,0.358,0.613,0.577,-,CALM,��
2021/09/09,10:40,0.580,0.858,0.546,1.045,0.730,0.357,0.614,0.577,��쓌,2.3,��
2021/09/09,10:50,0.579,0.858,0.546,1.043,0.730,0.357,0.614,0.575,��쓌,1.9,��
2021/09/09,11:00,0.581,0.857,0.546,1.045,0.730,0.357,0.617,0.575,��쓌,2.3,��
2021/09/09,11:10,0.579,0.859,0.544,1.046,0.731,0.357,0.613,0.577,�쓌,2.2,��
2021/09/09,11:20,0.576,0.856,0.544,1.044,0.729,0.356,0.615,0.576,��쓌,2.9,��
2021/09/09,11:30,0.578,0.857,0.544,1.043,0.730,0.356,0.614,0.575,��,3.2,��
2021/09/09,11:40,0.580,0.857,0.545,1.046,0.730,0.356,0.615,0.575,��쓌,3.9,��
2021/09/09,11:50,0.579,0.857,0.544,1.044,0.731,0.357,0.616,0.577,��쓌,4.3,��
2021/09/09,12:00,0.578,0.858,0.545,1.045,0.729,0.356,0.615,0.576,��쓌,4.4,��
2021/09/09,12:10,0.579,0.858,0.544,1.042,0.732,0.356,0.614,0.576,��쓌,5.5,��
2021/09/09,12:20,0.581,0.858,0.546,1.045,0.732,0.356,0.616,0.576,��쓌,5.2,��
2021/09/09,12:30,0.580,0.860,0.544,1.044,0.731,0.358,0.615,0.577,��쓌,5.5,��
2021/09/09,12:40,0.579,0.860,0.547,1.044,0.733,0.356,0.616,0.576,��,4.9,��
2021/09/09,12:50,0.581,0.860,0.547,1.045,0.732,0.356,0.613,0.576,��쓌,4.5,��
2021/09/09,13:00,0.578,0.860,0.547,1.043,0.731,0.358,0.616,0.577,��쓌,5.2,��
2021/09/09,13:10,0.578,0.861,0.547,1.044,0.734,0.357,0.615,0.577,��,6.0,��
2021/09/09,13:20,0.581,0.860,0.547,1.043,0.733,0.357,0.616,0.575,��,7.7,��
2021/09/09,13:30,0.579,0.861,0.548,1.043,0.732,0.357,0.615,0.576,��,7.9,��
2021/09/09,13:40,0.580,0.860,0.549,1.046,0.733,0.357,0.616,0.575,��,6.2,��
2021/09/09,13:50,0.580,0.863,0.548,1.044,0.733,0.358,0.619,0.577,��,6.3,��
2021/09/09,14:00,0.581,0.862,0.547,1.044,0.733,0.357,0.617,0.577,��쓌,7.8,��
2021/09/09,14:10,0.581,0.861,0.548,1.045,0.733,0.356,0.618,0.576,��쓌,8.0,��
2021/09/09,14:20,0.579,0.862,0.546,1.044,0.734,0.357,0.616,0.577,��쓌,7.8,��
2021/09/09,14:30,0.581,0.863,0.547,1.044,0.733,0.357,0.616,0.577,��쓌,5.8,��
2021/09/09,14:40,0.581,0.864,0.547,1.044,0.734,0.357,0.616,0.578,��쓌,6.8,��
2021/09/09,14:50,0.581,0.862,0.546,1.043,0.732,0.358,0.617,0.576,��쓌,7.7,��
2021/09/09,15:00,0.582,0.863,0.548,1.046,0.734,0.356,0.617,0.577,��,8.5,��
2021/09/09,15:10,0.581,0.863,0.547,1.047,0.735,0.356,0.616,0.577,��,7.9,��
2021/09/09,15:20,0.581,0.864,0.548,1.047,0.733,0.358,0.616,0.577,��,8.0,��
2021/09/09,15:30,0.582,0.864,0.547,1.047,0.734,0.357,0.617,0.576,��,7.5,��
2021/09/09,15:40,0.581,0.864,0.549,1.047,0.736,0.357,0.618,0.576,��,6.8,��
2021/09/09,15:50,0.582,0.864,0.549,1.047,0.734,0.357,0.618,0.578,��,6.6,��
2021/09/09,16:00,0.582,0.865,0.549,1.044,0.736,0.356,0.618,0.577,��,6.5,��
2021/09/09,16:10,0.581,0.865,0.546,1.047,0.736,0.357,0.617,0.578,��,7.2,��
2021/09/09,16:20,0.581,0.865,0.548,1.048,0.735,0.356,0.619,0.578,��,5.8,��
2021/09/09,16:30,0.581,0.864,0.548,1.049,0.736,0.356,0.619,0.577,��,5.0,��
2021/09/09,16:40,0.580,0.864,0.549,1.046,0.736,0.357,0.617,0.577,��,5.0,��
2021/09/09,16:50,0.582,0.862,0.548,1.044,0.736,0.359,0.617,0.578,��,4.3,��
2021/09/09,17:00,0.583,0.865,0.547,1.046,0.735,0.359,0.615,0.576,��,4.8,�L
2021/09/09,17:10,0.581,0.864,0.549,1.049,0.736,0.357,0.618,0.576,��,5.5,�L
2021/09/09,17:20,0.581,0.864,0.548,1.048,0.734,0.357,0.616,0.578,��,5.1,�L
2021/09/09,17:30,0.582,0.867,0.550,1.050,0.736,0.357,0.616,0.577,��,5.4,��
2021/09/09,17:40,0.581,0.865,0.549,1.051,0.737,0.358,0.617,0.579,��,5.4,�L
2021/09/09,17:50,0.580,0.866,0.550,1.050,0.736,0.358,0.616,0.578,��,5.0,��
2021/09/09,18:00,0.580,0.867,0.551,1.050,0.736,0.356,0.618,0.578,��,5.6,��
2021/09/09,18:10,0.581,0.867,0.551,1.050,0.734,0.357,0.616,0.579,��,5.1,��
2021/09/09,18:20,0.581,0.867,0.550,1.052,0.736,0.358,0.618,0.577,��쐼,4.5,��
2021/09/09,18:30,0.580,0.865,0.550,1.051,0.736,0.359,0.619,0.579,��쐼,3.7,��
2021/09/09,18:40,0.583,0.868,0.550,1.051,0.736,0.359,0.618,0.579,��,4.7,��
2021/09/09,18:50,0.582,0.868,0.551,1.051,0.737,0.358,0.617,0.579,��,5.1,��
2021/09/09,19:00,0.580,0.867,0.552,1.049,0.737,0.359,0.619,0.580,��,5.2,��
2021/09/09,19:10,0.582,0.869,0.551,1.049,0.739,0.357,0.617,0.579,��,5.2,��
2021/09/09,19:20,0.582,0.868,0.551,1.047,0.739,0.359,0.618,0.580,��,4.9,��
2021/09/09,19:30,0.583,0.868,0.550,1.050,0.738,0.358,0.619,0.581,��,5.7,��
2021/09/09,19:40,0.583,0.870,0.550,1.051,0.738,0.359,0.619,0.581,��,6.1,��
2021/09/09,19:50,0.582,0.869,0.550,1.053,0.739,0.358,0.619,0.578,��쐼,5.4,��
2021/09/09,20:00,0.580,0.870,0.551,1.051,0.739,0.358,0.619,0.580,��,6.3,��
2021/09/09,20:10,0.579,0.870,0.552,1.051,0.737,0.359,0.617,0.579,��,5.2,��
2021/09/09,20:20,0.582,0.869,0.550,1.053,0.738,0.359,0.620,0.581,��,4.1,��
2021/09/09,20:30,0.579,0.871,0.550,1.051,0.738,0.359,0.618,0.581,��쐼,4.0,��
2021/09/09,20:40,0.582,0.870,0.550,1.051,0.738,0.358,0.619,0.580,��쐼,3.3,��
2021/09/09,20:50,0.583,0.869,0.552,1.054,0.738,0.359,0.619,0.580,�쐼,3.2,��
2021/09/09,21:00,0.585,0.871,0.552,1.052,0.738,0.359,0.619,0.580,�쐼,2.6,��
2021/09/09,21:10,0.585,0.869,0.552,1.054,0.740,0.359,0.620,0.580,���쐼,2.0,��
2021/09/09,21:20,0.584,0.871,0.552,1.052,0.740,0.359,0.620,0.582,��,1.7,��
2021/09/09,21:30,0.584,0.870,0.551,1.050,0.742,0.361,0.619,0.580,��,1.7,��
2021/09/09,21:40,0.583,0.869,0.550,1.054,0.740,0.359,0.617,0.581,���k��,1.4,��
2021/09/09,21:50,0.585,0.870,0.552,1.052,0.740,0.361,0.619,0.581,�k��,1.4,��
2021/09/09,22:00,0.584,0.870,0.552,1.051,0.740,0.361,0.619,0.581,�k��,1.4,��
2021/09/09,22:10,0.585,0.867,0.553,1.053,0.741,0.360,0.619,0.582,�k��,2.2,��
2021/09/09,22:20,0.585,0.868,0.552,1.053,0.740,0.359,0.618,0.582,�k��,3.0,��
2021/09/09,22:30,0.585,0.867,0.552,1.053,0.741,0.359,0.618,0.580,�k��,3.4,��
2021/09/09,22:40,0.585,0.869,0.552,1.052,0.741,0.358,0.618,0.580,�k��,2.9,��
2021/09/09,22:50,0.585,0.869,0.552,1.055,0.742,0.359,0.619,0.581,�k��,2.9,��
2021/09/09,23:00,0.585,0.867,0.552,1.053,0.741,0.360,0.620,0.580,�k��,3.1,��
2021/09/09,23:10,0.585,0.870,0.552,1.052,0.742,0.358,0.617,0.581,�k��,2.3,��
2021/09/09,23:20,0.584,0.867,0.551,1.055,0.741,0.360,0.618,0.581,�k��,2.5,��
2021/09/09,23:30,0.583,0.869,0.550,1.051,0.741,0.362,0.617,0.581,�k��,2.9,��
2021/09/09,23:40,0.584,0.867,0.551,1.052,0.740,0.362,0.618,0.581,�k�k��,3.1,��
2021/09/09,23:50,0.585,0.868,0.553,1.052,0.741,0.361,0.617,0.581,�k��,3.0,��
